EHI
0 0 0 0 0 0 0 0 0 0 0 0 0 0 0 0 0 0 0 0 0 0 0 0 0 0 0 0 0 0 0 0 0 0 0 0 0 0
0 0 0 0 0 0 0 0 0 0 0 0 0 0 0 0 0 0 0 0 0 0 0 0 0 0 0 0 0 0 0 0 0 0 0 0 0 0
0 0 0 0 0 0 0 0 0 0 0 0 0 0 0 0 0 0 0 0 0 0 0 0 0 0 0 0 0 0 0 0 0 0 0 0 0 0
0 0 0 0 0 0 0 0 0 0 0 0 0 0 0 0 0 0 0 0 0 0 0 0 0 0 0 0 0 0 0 0 0 0 0 0 0 0
0 0 0 0 0 0 0 0 0 0 0 0 0 0 0 0 0 0 0 0 0 0 0 0 0 0 0 0 0 0 0 0 0 0 0 0 0 0
0 0 0 0 0 0 0 0 0 0 0 0 0 0 0 0 0 0 0 0 0 0 0 0 0 0 0 0 0 0 0 0 0 0 0 0 0 0
0 0 0 0 0 0 0 0 0 0 0 0 0 0 0 0 0 0 0 0 0 0 0 0 0 0 0 0 0 0 0 0 0 0 0 0 0 0
0 0 0 0 0 0 0 0 0 0 0 0 0 0 0 0 0 0 0 0 0 0 0 0 0 0 0 0 0 0 0 0 0 0 0 0 0 0
0 0 0 0 0 0 0 0 0 0 0 0 0 0 0 0 0 0 0 0 0 0 0 0 0 0 0 0 0 0 0 0 0 0 0 0 0 0
0 0 0 0 0 0 0 0 0 0 0 0 0 0 0 0 0 0 0 0 0 0 0 0 0 0 0 0 0 0 0 0 0 0 0 0 0 0
0 0 0 0 0 0 0 0 0 0 0 0 0 0 0 0 0 0 0 0 0 0 0 0 0 0 0 0 0 0 0 0 0 0 0 0 0 0
0 0 0 0 0 0 0 0 0 0 0 0 0 0 0 0 0 0 0 0 0 0 0 0 0 0 0 0 0 0 0 0 0 0 0 0 0 0
0 0 0 0 0 0 0 0 0 0 0 0 0 0 0 0 0 0 0 0 0 0 0 0 0 0 0 0 0 0 0 0 0 0 0 0 0 0
0 0 0 0 0 0 0 0 0 0 0 0 0 0 0 0 0 0 0 0 0 0 0 0 0 0 0 0 0 0 0 0 0 0 0 0 0 0
0 0 0 0 0 0 0 0 0 0 0 0 0 0 0 0 0 0 0 0 0 0 0 0 0 0 0 0 0 0 0 0 0 0 0 0 0 0
0 0 0 0 0 0 0 0 0 0 0 0 0 0 0 0 0 0 0 0 0 0 0 0 0 0 0 0 0 0 0 0 0 0 0 0 0 0
0 0 0 0 0 0 0 0 0 0 0 0 0 0 0 0 0 0 0 0 0 0 0 0 0 0 0 0 0 0 0 0 0 0 0 0 0 0
0 0 0 0 0 0 0 0 0 0 0 0 0 0 0 0 0 0 0 0 0 0 0 0 0 0 0 0 0 0 0 0 0 0 0 0 0 0
0 0 0 0 0 0 0 0 0 0 0 0 0 0 0 0 0 0 0 0 0 0 0 0 0 0 0 0 0 0 0 0 0 0 0 0 0 0
0 0 0 0 0 0 0 0 0 0 0 0 0 0 0 0 0 0 0 0 0 0 0 0 0 0 0 0 0 0 0 0 0 0 0 0 0 0
0 0 0 0 0 0 0 0 0 0 0 0 0 0 0 0 0 0 0 0 0 0 0 0 0 0 0 0 0 0 0 0 0 0 0 0 0 0
0 0 0 0 0 0 0 0 0 0 0 0 0 0 0 0 0 0 0 0 0 0 0 0 0 0 0 0 0 0 0 0 0 0 0 0 0 0
0 0 0 0 0 0 0 0 0 0 0 0 0 0 0 0 0 0 0 0 0 0 0 0 0 0 0 0 0 0 0 0 0 0 0 0 0 0
Wind_Speed
3 3 2 2 2 3 3 2 3 5 4 2 2 3 3 2 5 4 3 7 9 9 9 9 9 10 10 10 10 10 10 10 10 10 10 10 10 11
3 3 3 2 2 2 3 3 2 4 5 2 2 3 4 4 7 4 4 9 9 10 9 9 10 10 10 10 11 11 11 11 11 11 12 12 11 11
3 3 3 3 3 3 3 3 3 3 5 4 2 3 4 5 5 4 4 4 4 9 10 10 11 11 11 11 11 11 11 12 12 12 13 13 12 12
4 4 4 3 3 3 3 3 3 3 3 6 4 3 4 4 5 5 5 5 4 9 11 11 11 11 11 11 11 12 11 12 12 13 13 14 14 14
3 3 4 4 4 3 4 4 3 4 3 4 4 4 3 4 4 5 5 4 6 8 10 10 11 12 12 12 12 12 12 12 12 13 13 14 14 14
2 2 2 3 3 4 4 4 4 4 4 4 4 4 4 4 3 4 5 4 5 6 7 8 11 13 13 13 13 13 12 12 12 12 13 13 13 14
2 2 2 3 4 4 3 3 4 3 3 3 4 4 4 4 4 4 5 6 6 3 4 5 6 5 6 10 11 12 13 13 13 13 14 14 14 14
2 2 3 2 4 6 7 6 5 4 4 3 3 4 5 5 4 5 5 6 6 4 5 7 5 5 5 4 11 15 14 14 14 14 14 14 14 14
2 2 3 3 4 3 5 6 6 7 6 4 4 4 5 5 6 6 5 6 7 6 6 7 4 5 5 8 15 16 15 15 15 15 15 15 15 16
1 1 2 3 4 4 3 3 3 4 5 3 2 3 4 5 5 6 7 7 7 4 4 6 5 5 7 6 12 14 14 15 15 16 17 16 17 17
1 1 1 2 5 7 4 3 4 4 6 7 7 7 9 11 9 4 5 5 6 5 3 4 5 7 6 5 7 12 15 16 17 18 18 17 17 16
1 1 2 3 5 7 4 3 4 4 4 5 6 7 6 7 9 5 4 5 6 5 3 4 5 6 7 4 4 5 8 13 17 18 18 18 17 10
1 1 1 4 6 7 6 3 4 5 4 4 4 4 4 4 4 4 4 4 5 5 5 5 5 5 6 8 6 5 5 6 8 10 14 17 16 12
1 1 1 4 6 6 5 5 7 6 2 3 3 4 4 4 4 5 5 4 5 7 8 6 6 6 8 9 9 6 5 6 6 7 7 12 13 16
1 3 4 5 5 4 5 6 5 2 2 3 3 4 4 4 5 5 6 6 6 6 7 6 6 6 7 9 9 9 9 7 5 5 6 7 7 8
1 3 4 4 4 4 4 3 2 1 2 2 3 4 4 4 4 5 6 6 6 6 5 6 6 7 7 9 9 10 8 7 6 7 8 8 7 7
1 1 1 1 1 1 1 1 1 2 2 3 3 4 5 5 5 5 5 6 6 7 8 6 5 6 8 9 9 9 8 8 8 8 8 10 8 7
2 1 2 1 2 2 2 2 2 2 2 3 3 4 5 5 6 6 6 6 7 7 8 7 8 7 6 5 9 8 7 7 7 8 8 10 11 8
3 2 2 2 2 1 2 2 2 2 2 3 3 4 4 5 6 6 6 6 7 7 7 7 6 6 9 10 7 6 6 8 8 8 8 8 11 11
2 3 2 2 2 2 2 2 3 3 3 3 3 4 4 5 6 6 6 7 8 8 8 6 5 6 7 9 9 9 10 9 8 9 9 9 9 12
3 3 2 2 2 2 2 2 3 3 3 3 4 4 4 5 6 6 7 11 9 8 9 8 8 12 8 7 8 9 8 10 12 10 9 9 9 8
3 3 2 2 2 2 2 3 3 3 4 4 4 4 4 5 6 7 7 7 7 8 9 9 9 8 6 7 10 11 12 11 11 14 12 10 7 7
3 3 2 2 2 2 2 3 4 4 4 4 4 4 4 5 6 6 7 7 8 9 9 9 8 6 7 7 9 9 12 11 8 8 7 10 13 14
Wind_Direction
322 324 322 320 323 321 320 312 296 297 297 312 341 348 341 343 343 339 338 342 342 339 335 333 330 328 326 322 319 316 312 307 304 300 292 284 276 274
324 330 329 326 323 325 316 314 304 288 288 314 331 330 335 340 343 341 337 341 343 339 333 329 326 324 320 316 315 313 310 304 300 296 296 289 282 279
340 339 338 344 339 334 332 327 317 301 286 297 316 325 333 334 334 332 329 332 329 332 328 325 322 320 317 314 312 310 309 308 305 299 296 293 287 281
350 352 350 351 347 340 338 333 327 315 297 299 311 325 327 327 326 331 333 333 323 323 325 324 324 324 323 318 315 312 309 308 305 302 297 294 289 283
351 356 358 2 354 345 341 342 336 334 323 307 310 320 318 328 331 333 330 328 323 321 324 325 328 328 326 323 320 316 313 309 306 302 296 293 289 283
358 3 9 10 354 344 347 345 341 340 334 324 318 320 322 329 339 333 327 326 320 322 327 330 328 327 323 323 320 315 310 307 305 305 301 295 289 285
358 0 12 8 353 353 349 347 346 337 328 324 320 323 328 338 337 330 322 320 311 321 329 320 314 309 314 318 318 317 314 312 310 308 304 301 295 288
343 344 343 354 360 0 355 353 348 335 326 319 317 318 321 324 324 324 322 322 312 328 325 308 307 306 309 309 316 317 315 313 311 309 307 304 301 296
330 337 342 355 5 357 349 348 348 346 337 317 313 314 317 321 319 314 313 308 295 304 311 298 304 301 305 312 317 314 315 315 313 310 307 305 302 298
319 341 350 351 351 345 336 339 340 344 337 337 319 312 316 312 302 300 300 301 291 295 310 294 304 300 305 300 308 312 320 322 319 314 309 305 302 298
310 14 15 352 341 344 344 336 335 335 343 344 335 328 329 332 332 326 323 318 310 309 320 301 307 308 297 289 305 319 321 318 316 313 309 306 304 301
307 336 339 338 337 341 343 340 331 326 331 335 337 336 337 342 349 353 335 319 313 309 334 329 313 323 309 290 298 312 311 310 311 312 311 308 307 302
278 290 311 328 332 334 340 337 319 325 332 333 331 332 340 346 346 343 334 316 306 295 308 319 306 307 294 299 300 293 294 301 308 306 308 309 307 303
253 261 286 313 321 325 329 327 332 341 342 333 332 333 333 329 323 318 310 298 282 281 288 290 286 293 295 294 296 298 298 294 295 296 297 305 304 301
238 269 289 302 311 315 318 330 341 345 334 332 327 321 317 312 314 314 310 301 292 285 285 280 275 281 281 285 290 294 303 301 289 289 293 295 293 294
262 276 294 306 313 312 320 333 340 330 331 319 313 311 313 316 320 320 319 320 313 304 289 285 282 279 284 284 284 288 290 290 298 296 294 290 286 282
239 252 270 292 296 304 309 316 331 341 335 321 318 318 319 321 320 321 317 316 310 310 314 312 297 282 273 275 281 281 286 286 286 294 300 296 288 281
240 240 256 262 275 289 297 307 316 317 316 313 313 314 316 317 317 317 315 313 310 309 309 312 317 314 303 276 250 269 280 285 291 294 293 295 295 291
231 230 241 247 260 275 286 292 297 303 306 303 303 305 308 310 311 312 313 311 308 307 307 309 313 314 315 312 292 251 277 292 296 294 289 287 290 295
216 222 230 238 249 264 274 284 292 296 296 295 295 296 298 302 304 304 306 306 306 307 308 306 304 302 297 295 294 290 282 280 287 291 293 290 283 286
219 218 221 226 238 252 264 273 279 283 286 287 286 288 293 297 298 299 300 304 307 305 307 306 296 300 291 283 286 291 288 282 284 285 291 295 297 297
218 216 220 225 234 243 252 263 272 276 280 281 284 287 291 292 294 296 298 300 301 300 300 298 297 298 293 292 295 299 302 304 296 292 288 280 287 294
213 215 217 225 233 237 246 258 267 274 277 279 281 284 287 289 290 291 294 295 297 300 303 304 305 302 298 294 297 300 305 310 313 313 303 301 299 292